South Bend International Airport (SBN)


Airport Diagram
Current Weather/Forecast (VFR Conditions)
METAR KSBN 252354Z 27003KT 10SM CLR 28/17 A2994 RMK AO2 SLP132 T02780172 10306 20278 56007
TAF KSBN 252320Z 2600/2624 28002KT P6SM SCT250 FM261500 32006KT P6SM FEW060

All Charts
General
Chart Name Download
AIRPORT DIAGRAM
TAKEOFF MINIMUMS
ALTERNATE MINIMUMS

Approaches
Chart Name Download
ILS OR LOC RWY 09R
ILS OR LOC RWY 27L
ILS RWY 27L (SA CAT I - II)
RNAV (GPS) RWY 09L
RNAV (GPS) RWY 09R
RNAV (GPS) RWY 18
RNAV (GPS) RWY 27L
RNAV (GPS) RWY 27R
RNAV (GPS) RWY 36
VOR RWY 18